Simultaneous Nadir Overpasses (SNOs) Predictions

Prediction of SNOs between LANDSAT-8 and NOAA-19 Satellite Orbit:

Table of predicted SNOs for the next 14.0 days since TLE Epoch: 8/10/2019
Index Date (LANDSAT-8) Time (LANDSAT-8) Lat,Lon (LANDSAT-8) SZA (LANDSAT-8 ) Date (NOAA-19) Time (NOAA-19) Lat,Lon (NOAA-19) SZA (NOAA-19 ) Distance(km) Time Diff (sec)
1 08/11/2019 16:30:18 78.98, -46.90 64.38 08/11/2019 16:29:57 78.97, -46.80 64.37 2.41 21
2 08/11/2019 17:19:46 -78.95, 120.55 115.66 08/11/2019 17:20:53 -78.95, 120.65 115.63 2.24 67
3 08/13/2019 22:04:03 -79.00, 49.78 114.92 08/13/2019 22:03:18 -79.01, 49.63 114.93 3.32 45
4 08/13/2019 22:53:30 78.95,-142.85 65.03 08/13/2019 22:54:21 78.96,-142.75 65.06 2.48 51
5 08/16/2019 03:37:47 79.00, 146.36 65.78 08/16/2019 03:36:46 79.02, 146.31 65.78 2.04 61
6 08/16/2019 04:27:15 -78.97, -46.17 114.25 08/16/2019 04:27:41 -78.99, -46.18 114.23 1.56 26
7 08/18/2019 10:00:58 79.01, 50.62 66.52 08/18/2019 10:01:09 78.98, 50.57 66.50 3.27 11
8 08/20/2019 15:34:43 -78.99, 147.06 112.77 08/20/2019 15:34:27 -79.00, 147.20 112.76 2.99 16
9 08/22/2019 21:08:26 79.02,-116.18 68.03 08/22/2019 21:07:56 79.02,-116.22 68.01 1.05 30




NCC Satellite Simultaneous Nadir Overpasses (SNOs) Prediction Service
